DLH2A EDDS-EDDF

Flight info

Callsign DLH2A
Flight time 0h 24m
Altitude 22000
Route ETASA2H ETASA T163 SPESA SPESA5B
Aircraft A343/H-SDE2E3FGHIJ4J5M1RWXY/LB1D1

Departure

Time 2026-05-04 14:51
Airport Stuttgart Airport (EDDS)

Arrival

Time 2026-05-04 15:16
Airport Frankfurt Main Airport (EDDF)
Time Latitude Longitude Altitude Speed Heading
2026-05-04 14:36 48.68873 9.19364 1321 ft 0 kts 344°
2026-05-04 14:36 48.68874 9.19363 1321 ft 0 kts 344°
2026-05-04 14:44 48.68860 9.19370 1321 ft 4 kts 344°
2026-05-04 14:44 48.68835 9.19380 1319 ft 4 kts 339°
2026-05-04 14:44 48.68816 9.19401 1320 ft 4 kts 283°
2026-05-04 14:44 48.68817 9.19439 1317 ft 4 kts 254°
2026-05-04 14:45 48.68821 9.19456 1316 ft 0 kts 254°
2026-05-04 14:47 48.68820 9.19455 1316 ft 1 kts 254°
2026-05-04 14:47 48.68811 9.19407 1317 ft 11 kts 254°
2026-05-04 14:47 48.68785 9.19266 1319 ft 15 kts 253°
2026-05-04 14:48 48.68740 9.19155 1322 ft 11 kts 200°
2026-05-04 14:48 48.68662 9.19170 1320 ft 13 kts 161°
2026-05-04 14:48 48.68644 9.19257 1317 ft 9 kts 76°
2026-05-04 14:48 48.68671 9.19395 1313 ft 18 kts 74°
2026-05-04 14:49 48.68714 9.19613 1307 ft 24 kts 73°
2026-05-04 14:49 48.68746 9.19779 1303 ft 25 kts 73°
2026-05-04 14:49 48.68736 9.19965 1296 ft 9 kts 154°
2026-05-04 14:49 48.68665 9.19993 1292 ft 13 kts 163°
2026-05-04 14:50 48.68581 9.20072 1288 ft 3 kts 90°
2026-05-04 14:50 48.68585 9.20082 1287 ft 1 kts 69°
2026-05-04 14:50 48.68596 9.20116 1286 ft 6 kts 60°
2026-05-04 14:50 48.68599 9.20128 1292 ft 0 kts 72°
2026-05-04 14:51 48.68602 9.20144 1290 ft 7 kts 76°
2026-05-04 14:51 48.68672 9.20530 1277 ft 79 kts 72°
2026-05-04 14:51 48.68901 9.21734 1261 ft 156 kts 75°
2026-05-04 14:51 48.69151 9.23390 1998 ft 163 kts 76°
2026-05-04 14:52 48.69526 9.25723 3034 ft 191 kts 71°
2026-05-04 14:52 48.69944 9.27792 3520 ft 221 kts 71°
2026-05-04 14:52 48.70428 9.30119 4159 ft 240 kts 71°
2026-05-04 14:52 48.70758 9.31753 4661 ft 250 kts 70°
2026-05-04 14:53 48.71268 9.34334 5525 ft 260 kts 74°
2026-05-04 14:53 48.71806 9.37000 6433 ft 269 kts 72°
2026-05-04 14:53 48.72829 9.39416 7294 ft 282 kts 43°
2026-05-04 14:53 48.74527 9.40964 8218 ft 289 kts 25°
2026-05-04 14:54 48.77035 9.42480 9427 ft 298 kts 14°
2026-05-04 14:54 48.78431 9.42768 9990 ft 303 kts 358°
2026-05-04 14:54 48.80513 9.42096 10547 ft 316 kts 336°
2026-05-04 14:54 48.82537 9.40663 10949 ft 334 kts 331°
2026-05-04 14:55 48.84664 9.39031 11370 ft 353 kts 330°
2026-05-04 14:55 48.86911 9.37324 11907 ft 366 kts 331°
2026-05-04 14:55 48.89219 9.35594 12617 ft 373 kts 331°
2026-05-04 14:55 48.91562 9.33850 13376 ft 379 kts 331°
2026-05-04 14:56 48.93954 9.32118 13910 ft 386 kts 335°
2026-05-04 14:56 48.96569 9.30960 14617 ft 394 kts 349°
2026-05-04 14:56 48.99324 9.30677 15344 ft 400 kts 357°
2026-05-04 14:56 49.02104 9.30711 15994 ft 406 kts 359°
2026-05-04 14:57 49.04965 9.30821 16679 ft 411 kts 359°
2026-05-04 14:57 49.07799 9.30947 17342 ft 416 kts 360°
2026-05-04 14:57 49.10713 9.31084 17997 ft 421 kts 360°
2026-05-04 14:57 49.13658 9.31226 18610 ft 427 kts 360°
2026-05-04 14:58 49.16647 9.31371 19208 ft 431 kts 359°
2026-05-04 14:58 49.19654 9.31518 19718 ft 435 kts 359°
2026-05-04 14:58 49.22679 9.31667 19932 ft 436 kts 359°
2026-05-04 14:58 49.25721 9.31817 19969 ft 436 kts 359°
2026-05-04 14:59 49.28754 9.31967 19968 ft 437 kts 360°
2026-05-04 14:59 49.31800 9.32117 19966 ft 438 kts 359°
2026-05-04 14:59 49.37830 9.32417 19310 ft 435 kts 359°
2026-05-04 15:00 49.40841 9.32566 18717 ft 433 kts 359°
2026-05-04 15:00 49.43845 9.32715 18111 ft 431 kts 359°
2026-05-04 15:00 49.46835 9.32863 17452 ft 428 kts 360°
2026-05-04 15:01 49.52759 9.33157 16164 ft 424 kts
2026-05-04 15:01 49.55703 9.33303 15537 ft 421 kts
2026-05-04 15:01 49.58616 9.33449 14915 ft 418 kts
2026-05-04 15:01 49.61522 9.33593 14330 ft 416 kts
2026-05-04 15:02 49.64399 9.33736 13730 ft 413 kts
2026-05-04 15:02 49.67264 9.33880 13060 ft 410 kts
2026-05-04 15:02 49.70099 9.34023 12411 ft 407 kts
2026-05-04 15:02 49.72915 9.34165 11778 ft 404 kts
2026-05-04 15:03 49.75679 9.34303 11192 ft 401 kts
2026-05-04 15:03 49.78433 9.34428 10857 ft 390 kts 359°
2026-05-04 15:03 49.81098 9.34073 10500 ft 380 kts 348°
2026-05-04 15:03 49.83632 9.33123 10264 ft 368 kts 343°
2026-05-04 15:04 49.86066 9.32084 10046 ft 357 kts 343°
2026-05-04 15:04 49.88422 9.31075 9850 ft 346 kts 343°
2026-05-04 15:04 49.90716 9.30102 9643 ft 336 kts 343°
2026-05-04 15:04 49.92932 9.29156 9484 ft 326 kts 343°
2026-05-04 15:05 49.95093 9.28232 9343 ft 317 kts 343°
2026-05-04 15:05 49.97199 9.27340 9251 ft 310 kts 343°
2026-05-04 15:05 49.99258 9.26482 9069 ft 305 kts 343°
2026-05-04 15:05 50.01293 9.25628 8807 ft 302 kts 343°
2026-05-04 15:06 50.03290 9.24784 8570 ft 299 kts 343°
2026-05-04 15:06 50.05286 9.23942 8344 ft 295 kts 343°
2026-05-04 15:06 50.07239 9.23120 8204 ft 286 kts 343°
2026-05-04 15:07 50.10930 9.21584 7679 ft 262 kts 343°
2026-05-04 15:07 50.12674 9.20871 7160 ft 257 kts 343°
2026-05-04 15:07 50.14301 9.19885 6658 ft 247 kts 322°
2026-05-04 15:07 50.15409 9.17953 6085 ft 237 kts 294°
2026-05-04 15:08 50.15996 9.15573 5479 ft 234 kts 285°
2026-05-04 15:08 50.16332 9.13112 4898 ft 230 kts 270°
2026-05-04 15:08 50.16208 9.10698 4349 ft 226 kts 259°
2026-05-04 15:08 50.15812 9.08321 4052 ft 228 kts 252°
2026-05-04 15:09 50.15291 9.05988 3989 ft 226 kts 250°
2026-05-04 15:09 50.14750 9.03709 3974 ft 224 kts 250°
2026-05-04 15:09 50.14209 9.01432 3985 ft 225 kts 250°
2026-05-04 15:10 50.13133 8.96888 3972 ft 223 kts 250°
2026-05-04 15:10 50.12601 8.94648 3963 ft 215 kts 251°
2026-05-04 15:10 50.11638 8.90609 3991 ft 177 kts 250°
2026-05-04 15:11 50.11225 8.88875 3983 ft 172 kts 250°
2026-05-04 15:11 50.10809 8.87130 3984 ft 171 kts 250°
2026-05-04 15:11 50.10395 8.85395 3932 ft 171 kts 250°
2026-05-04 15:11 50.09980 8.83658 3746 ft 170 kts 250°
2026-05-04 15:12 50.09572 8.81946 3513 ft 169 kts 250°
2026-05-04 15:12 50.09159 8.80215 3271 ft 171 kts 250°
2026-05-04 15:12 50.08746 8.78491 3036 ft 169 kts 253°
2026-05-04 15:12 50.08337 8.76775 2792 ft 169 kts 252°
2026-05-04 15:13 50.07940 8.75107 2604 ft 167 kts 252°
2026-05-04 15:13 50.07604 8.73382 2338 ft 165 kts 263°
2026-05-04 15:13 50.07482 8.71605 2059 ft 161 kts 267°
2026-05-04 15:13 50.07203 8.70018 1866 ft 144 kts 253°
2026-05-04 15:14 50.06884 8.68660 1695 ft 132 kts 253°
2026-05-04 15:14 50.06573 8.67328 1542 ft 127 kts 251°
2026-05-04 15:14 50.06255 8.66040 1348 ft 128 kts 250°
2026-05-04 15:14 50.05947 8.64735 1191 ft 130 kts 253°
2026-05-04 15:15 50.05639 8.63416 1016 ft 130 kts 250°
2026-05-04 15:15 50.05324 8.62093 863 ft 130 kts 249°
2026-05-04 15:15 50.05013 8.60786 694 ft 131 kts 251°
2026-05-04 15:16 50.04387 8.58164 375 ft 123 kts 250°
2026-05-04 15:16 50.04178 8.57279 371 ft 40 kts 255°
2026-05-04 15:16 50.04208 8.56876 368 ft 12 kts 297°
2026-05-04 15:17 50.04213 8.56864 371 ft 0 kts 301°
2026-05-04 15:17 50.04287 8.56809 368 ft 13 kts
2026-05-04 15:17 50.04380 8.56836 367 ft 15 kts 10°
2026-05-04 15:18 50.04440 8.56810 369 ft 8 kts 288°
2026-05-04 15:18 50.04420 8.56691 365 ft 17 kts 251°
2026-05-04 15:18 50.04370 8.56483 367 ft 23 kts 248°
2026-05-04 15:19 50.04267 8.56028 364 ft 17 kts 271°
2026-05-04 15:19 50.04349 8.55926 366 ft 16 kts 339°
2026-05-04 15:19 50.04551 8.55986 362 ft 17 kts 42°
2026-05-04 15:20 50.04606 8.56155 366 ft 17 kts 58°
2026-05-04 15:20 50.04682 8.56168 369 ft 7 kts 343°
2026-05-04 15:20 50.04701 8.56159 369 ft 0 kts 341°